CAPE
633 894 1021 877 905 930 975 1100 1195 1334 1426 1498 1653 1684 1701 1733 1694 1730 1816 1951 2208 2263 1837 1032 573 630 687 652 655 609 536 718
756 827 889 628 603 568 628 703 766 867 979 1038 1165 1222 1216 1263 1323 1370 1547 1743 1905 2043 2059 1626 910 421 325 355 449 504 450 481
1151 1099 1167 963 585 750 746 796 786 830 858 864 862 714 709 874 1261 1368 1123 1398 1566 1700 1730 1781 1555 1154 673 263 163 172 237 231
2514 2621 2395 2340 2206 1803 1515 1488 1231 1282 1364 1783 1625 1574 1711 1834 1851 2031 1512 1022 1294 1374 1451 1499 1560 1553 1466 1263 848 289 202 352
1836 2127 2825 2860 2547 2174 2120 2263 1698 1595 1706 1840 1797 2118 1934 1668 1599 1547 1485 1574 1392 1365 1688 1334 1408 1449 1363 1206 1110 1203 1107 874
1047 1546 2260 2385 2235 2182 1954 1678 1663 1740 1737 1966 1562 1694 1196 1619 1536 1395 1356 1364 1020 745 1491 1929 1291 1271 1340 1228 1112 1036 1016 923
952 1213 1160 1628 1936 1921 1504 1165 964 1122 733 507 505 263 543 456 624 345 358 548 303 637 382 436 437 564 555 696 1070 924 962 949
1228 876 804 882 972 836 704 546 409 290 184 145 114 64 72 125 84 111 101 96 161 151 215 292 335 319 266 271 162 146 736 1108
377 352 466 465 525 382 262 209 127 64 30 20 26 8 1 0 0 0 1 2 15 80 109 156 143 62 0 0 0 0 0 13
230 272 195 117 84 49 19 1 1 1 0 0 0 0 0 0 0 0 0 0 0 0 0 9 29 1 0 0 0 0 0 0
96 43 29 21 20 26 27 33 10 1 3 5 0 0 0 0 0 0 0 0 0 0 0 0 0 0 0 0 0 0 0 0
0 0 0 0 0 0 0 0 0 0 0 0 0 0 0 11 0 0 0 0 0 0 0 0 0 0 0 0 0 0 0 0
0 0 0 0 0 0 0 0 0 0 0 0 0 0 0 0 0 0 0 0 0 0 0 0 0 0 0 0 0 0 0 0
0 0 0 0 0 0 0 0 0 0 0 0 0 0 0 0 0 0 0 0 0 0 0 0 0 0 0 0 0 0 0 0
0 0 0 0 0 0 0 0 0 0 0 0 0 0 0 0 0 0 0 0 0 0 0 0 0 0 0 0 0 0 0 0
0 0 0 0 0 0 0 0 0 0 0 0 0 0 0 0 0 0 0 0 0 0 0 0 0 0 0 0 0 0 0 0
0 0 0 0 0 0 0 0 0 0 0 0 0 0 0 0 0 0 0 0 0 0 0 0 0 0 0 0 0 0 0 0
0 0 0 0 0 0 0 0 0 0 0 0 0 0 0 0 0 0 0 0 0 0 0 0 0 0 0 0 0 0 0 0
0 0 0 0 0 0 0 0 0 0 0 0 0 0 0 0 0 0 0 0 0 0 0 0 0 0 0 0 1 1 3 2
0 0 0 0 1 0 0 0 0 0 0 0 0 0 0 0 0 0 0 0 0 0 0 0 0 0 0 0 0 0 0 0
CIN
-518 -427 -372 -391 -370 -352 -313 -260 -222 -170 -150 -133 -93 -79 -79 -73 -77 -73 -70 -51 -29 -23 -56 -158 -252 -247 -238 -246 -248 -248 -250 -18
-392 -362 -368 -426 -429 -400 -362 -340 -303 -264 -229 -203 -173 -155 -137 -122 -112 -104 -84 -63 -50 -32 -30 -58 -123 -250 -286 -274 -245 -240 -256 -24
-206 -211 -232 -264 -341 -309 -302 -255 -231 -196 -188 -196 -184 -194 -186 -141 -39 -29 -88 -69 -48 -39 -35 -22 -33 -67 -139 -244 -293 -278 -273 -256
0 -2 -2 -5 -11 -23 -36 -73 -103 -68 -61 -14 -24 -28 -11 -6 -2 0 -9 -36 -29 -26 -16 -14 -7 -10 -23 -42 -88 -129 -48 -43
-23 -10 -1 0 -4 -22 -14 -12 -28 -21 -11 -3 -6 0 0 0 0 0 -2 -3 -4 -1 0 -1 -4 -8 -9 -13 -28 -14 -18 -28
-178 -75 -19 -2 -2 0 0 -14 -11 -3 -9 -1 -5 0 -13 0 0 0 -3 -4 -19 -31 0 0 -1 0 -1 -5 -5 -26 -13 -16
-205 -114 -67 -21 -22 -20 -53 -44 -58 -40 -56 -88 -114 -100 -36 -59 -35 -83 -88 -67 -87 -34 -61 -55 -43 -25 -19 -7 -16 -18 -16 -14
-118 -84 -100 -112 -100 -122 -134 -115 -106 -118 -105 -127 -165 -188 -113 -81 -102 -114 -96 -89 -94 -101 -82 -52 -43 -44 -46 -36 -40 -64 -34 -11
-146 -87 -144 -121 -88 -182 -231 -226 -201 -168 -169 -164 -164 -145 -45 0 0 -11 -8 -6 -91 -79 -88 -70 -45 -42 -6 0 0 0 0 -9
-82 -88 -104 -317 -268 -278 -261 -8 -17 -3 0 0 0 0 0 0 0 0 0 0 0 0 0 -62 -44 -19 0 0 0 0 0 0
-210 -230 -208 -180 -140 -110 -104 -42 -25 -60 -60 -64 0 0 0 0 0 0 0 0 0 0 0 0 0 0 0 0 0 0 0 0
0 0 0 0 0 0 0 0 0 0 0 0 0 0 0 -97 0 0 0 0 0 0 0 0 0 0 0 0 0 0 0 0
0 0 0 0 0 0 0 0 0 0 0 0 0 0 0 0 0 0 0 0 0 0 0 0 0 0 0 0 0 0 0 0
0 0 0 0 0 0 0 0 0 0 0 0 0 0 0 0 0 0 0 0 0 0 0 0 0 0 0 0 0 0 0 0
0 0 0 0 0 0 0 0 0 0 0 0 0 0 0 0 0 0 0 0 0 0 0 0 0 0 0 0 0 0 0 0
0 0 0 0 0 0 0 0 0 0 0 0 0 0 0 0 0 0 0 0 0 0 0 0 0 0 0 0 0 0 0 0
0 0 0 0 0 0 0 0 0 0 0 0 0 0 0 0 0 0 0 0 0 0 0 0 0 0 0 0 0 0 0 0
0 0 0 0 0 0 0 0 0 0 0 0 0 0 0 0 0 0 0 0 0 0 0 0 0 0 0 0 0 0 0 0
0 0 0 0 0 0 0 0 0 0 0 0 0 0 0 0 0 0 0 0 0 0 0 0 0 0 0 0 -1 0 0 -1
0 0 0 0 -1 0 0 0 0 0 0 0 0 0 0 0 0 0 0 0 0 0 0 0 0 0 0 0 0 0 0 0
Wind_Speed
24 20 20 24 23 24 24 22 23 23 25 26 25 25 24 22 21 21 21 22 22 23 23 22 22 22 22 20 20 19 23 21
25 23 21 22 24 27 26 25 24 25 25 25 26 26 25 22 21 21 22 24 24 23 22 22 22 22 24 23 22 22 24 23
25 23 23 24 26 28 30 28 28 26 25 25 27 25 24 23 24 22 23 23 24 24 24 25 25 25 27 25 26 29 26 27
26 22 19 23 27 28 31 31 32 33 33 32 31 29 31 29 29 24 27 25 25 25 24 24 25 30 28 24 31 30 28 28
25 27 28 30 31 32 33 33 35 36 39 39 36 34 37 38 35 37 37 33 32 31 28 29 28 31 28 31 29 31 30 30
40 36 28 26 30 36 38 38 36 34 38 42 42 38 36 41 37 40 41 39 39 38 37 37 35 30 29 26 31 34 35 30
36 32 26 28 36 37 42 37 37 40 36 40 46 46 33 33 35 38 39 37 33 33 29 30 30 26 26 29 30 27 25 29
34 29 31 38 39 45 45 43 42 43 39 43 42 nan nan 29 nan 42 42 nan 34 36 38 37 34 33 35 34 34 33 29 31
39 40 38 32 35 37 43 48 50 nan nan nan nan nan nan nan nan nan nan nan nan nan 43 43 39 nan nan nan nan nan nan nan
36 39 39 43 nan nan nan nan nan nan nan nan nan nan nan nan nan nan nan nan nan nan nan nan nan nan nan nan nan nan nan nan
nan nan nan nan nan nan nan nan nan nan nan nan nan nan nan nan nan nan nan nan nan nan nan nan nan nan nan nan nan nan nan nan
nan nan nan nan nan nan nan nan nan nan nan nan nan nan nan nan nan nan nan nan nan nan nan nan nan nan nan nan nan nan nan nan
nan nan nan nan nan nan nan nan nan nan nan nan nan nan nan nan nan nan nan nan nan nan nan nan nan nan nan nan nan nan nan nan
nan nan nan nan nan nan nan nan nan nan nan nan nan nan nan nan nan nan nan nan nan nan nan nan nan nan nan nan nan nan nan nan
nan nan nan nan nan nan nan nan nan nan nan nan nan nan nan nan nan nan nan nan nan nan nan nan nan nan nan nan nan nan nan nan
nan nan nan nan nan nan nan nan nan nan nan nan nan nan nan nan nan nan nan nan nan nan nan nan nan nan nan nan nan nan nan nan
nan nan nan nan nan nan nan nan nan nan nan nan nan nan nan nan nan nan nan nan nan nan nan nan nan nan nan nan nan nan nan nan
nan nan nan nan nan nan nan nan nan nan nan nan nan nan nan nan nan nan nan nan nan nan nan nan nan nan nan nan nan nan nan nan
nan nan nan nan nan nan nan nan nan nan nan nan nan nan nan nan nan nan nan nan nan nan nan nan nan nan nan nan nan nan nan nan
nan nan nan nan nan nan nan nan nan nan nan nan nan nan nan nan nan nan nan nan nan nan nan nan nan nan nan nan nan nan nan nan
Wind_Direction
291 274 267 265 266 266 266 266 267 264 270 273 273 272 273 275 279 282 283 282 282 282 283 282 285 286 285 283 279 277 276 275
282 280 281 275 267 265 264 267 269 271 273 271 270 270 272 276 285 287 288 288 287 285 285 287 284 284 281 278 275 269 270 276
276 282 288 288 286 289 287 285 280 275 274 277 272 270 275 280 283 290 292 290 289 287 286 282 277 278 276 275 273 267 268 268
238 245 269 284 284 284 283 284 280 271 265 267 269 267 265 270 277 287 267 273 278 274 275 276 273 271 269 277 274 270 266 266
239 236 230 249 259 265 267 265 268 270 266 265 264 268 267 266 266 266 268 261 270 272 272 274 274 266 263 269 281 264 263 267
312 275 270 262 269 269 269 267 265 265 264 263 262 259 260 264 266 261 260 259 257 259 260 263 264 258 267 272 274 268 257 264
306 278 279 281 277 281 281 269 269 270 265 262 269 262 250 263 266 272 265 260 266 269 272 277 279 282 250 261 265 270 273 266
311 317 311 300 288 290 288 287 283 278 272 275 268 nan nan 259 nan 266 264 nan 267 266 267 270 270 264 261 258 258 264 266 272
321 321 310 309 310 309 288 288 286 nan nan nan nan nan nan nan nan nan nan nan nan nan 261 263 261 nan nan nan nan nan nan nan
318 312 308 304 nan nan nan nan nan nan nan nan nan nan nan nan nan nan nan nan nan nan nan nan nan nan nan nan nan nan nan nan
nan nan nan nan nan nan nan nan nan nan nan nan nan nan nan nan nan nan nan nan nan nan nan nan nan nan nan nan nan nan nan nan
nan nan nan nan nan nan nan nan nan nan nan nan nan nan nan nan nan nan nan nan nan nan nan nan nan nan nan nan nan nan nan nan
nan nan nan nan nan nan nan nan nan nan nan nan nan nan nan nan nan nan nan nan nan nan nan nan nan nan nan nan nan nan nan nan
nan nan nan nan nan nan nan nan nan nan nan nan nan nan nan nan nan nan nan nan nan nan nan nan nan nan nan nan nan nan nan nan
nan nan nan nan nan nan nan nan nan nan nan nan nan nan nan nan nan nan nan nan nan nan nan nan nan nan nan nan nan nan nan nan
nan nan nan nan nan nan nan nan nan nan nan nan nan nan nan nan nan nan nan nan nan nan nan nan nan nan nan nan nan nan nan nan
nan nan nan nan nan nan nan nan nan nan nan nan nan nan nan nan nan nan nan nan nan nan nan nan nan nan nan nan nan nan nan nan
nan nan nan nan nan nan nan nan nan nan nan nan nan nan nan nan nan nan nan nan nan nan nan nan nan nan nan nan nan nan nan nan
nan nan nan nan nan nan nan nan nan nan nan nan nan nan nan nan nan nan nan nan nan nan nan nan nan nan nan nan nan nan nan nan
nan nan nan nan nan nan nan nan nan nan nan nan nan nan nan nan nan nan nan nan nan nan nan nan nan nan nan nan nan nan nan nan